Wheeler AAF, HI

4:57 PM HST on April 19, 2018 (GMT -1000)
Wheeler Army Air Field

Weather History for PHHI - August, 2013

Change the Weather History Date:

Tuesday, August 20, 2013

  Actual Average Record
Temperature  
Mean Temperature 76 °F -  
Max Temperature 86 °F 81 °F 87 °F (1999)
Min Temperature 66 °F 68 °F 66 °F (2013)
Cooling Degree Days 11    
Growing Degree Days 26 (Base 50)    
Moisture  
Dew Point 66 °F    
Average Humidity 74    
Maximum Humidity 89    
Minimum Humidity 52    
Precipitation  
Precipitation 0.00 in - - ()
Sea Level Pressure  
Sea Level Pressure 29.95 in    
Wind  
Wind Speed 3 mph (NNE)    
Max Wind Speed 13 mph    
Max Gust Speed -    
Visibility 10 miles    
Events      
Averages and records for this station are not official NWS values.
T = Trace of Precipitation, MM = Missing Value Source: NWS Daily Summary

Daily Weather History Graph

Daily Weather History Graph

Search for Another Location

Airport or City:

Astronomy

Aug. 20, 2013 Rise Set
Actual Time 6:12 AM HST 6:58 PM HST
Civil Twilight 5:49 AM HST 7:21 PM HST
Nautical Twilight 5:22 AM HST 7:48 PM HST
Astronomical Twilight 4:54 AM HST 8:15 PM HST
Moon 6:46 PM HST 5:50 AM HST
Length of Visible Light 13h 31m
Length of Day
12h 46m
Full, 100% of the Moon is Illuminated
Aug 20
Full
Aug 20
Full
Aug 27
Last Quarter
Sep 5
New
Sep 12
First Quarter

Hourly Weather History & Observations

Time (HST) Temp. Heat Index Dew Point Humidity Pressure Visibility Wind Dir Wind Speed Gust Speed Precip Events Conditions
12:55 AM 68.7 °F - 63.3 °F 83% 29.98 in 10.0 mi Calm Calm - N/A   Clear
1:55 AM 67.8 °F - 64.0 °F 88% 29.97 in 10.0 mi Calm Calm - N/A   Clear
2:55 AM 66.9 °F - 63.3 °F 88% 29.95 in 10.0 mi NW 4.6 mph - N/A   Clear
3:55 AM 66.4 °F - 63.1 °F 89% 29.94 in 10.0 mi Calm Calm - N/A   Clear
4:55 AM 66.0 °F - 62.6 °F 89% 29.95 in 10.0 mi NNW 3.5 mph - N/A   Partly Cloudy
5:55 AM 67.6 °F - 64.2 °F 89% 29.94 in 10.0 mi NNW 3.5 mph - N/A   Clear
6:55 AM 67.3 °F - 63.7 °F 88% 29.95 in 10.0 mi Calm Calm - N/A   Clear
7:55 AM 73.8 °F - 66.4 °F 78% 29.96 in 10.0 mi Calm Calm - N/A   Clear
8:55 AM 78.1 °F - 66.7 °F 68% 29.96 in 10.0 mi East 3.5 mph - N/A   Clear
9:55 AM 81.5 °F 82.9 °F 63.7 °F 55% 29.96 in 10.0 mi Variable 4.6 mph - N/A   Partly Cloudy
10:55 AM 83.5 °F 84.9 °F 64.2 °F 52% 29.96 in 10.0 mi Calm Calm - N/A   Partly Cloudy
11:55 AM 86.0 °F 88.8 °F 66.9 °F 53% 29.95 in 10.0 mi East 8.1 mph - N/A   Clear
12:55 PM 81.7 °F 84.0 °F 66.6 °F 60% 29.95 in 10.0 mi North 5.8 mph - N/A   Mostly Cloudy
1:55 PM 79.7 °F - 66.2 °F 63% 29.93 in 10.0 mi NNW 12.7 mph - N/A   Overcast
2:55 PM 79.9 °F - 66.4 °F 63% 29.92 in 10.0 mi NNW 10.4 mph - N/A   Mostly Cloudy
3:55 PM 79.0 °F - 66.6 °F 66% 29.91 in 10.0 mi North 10.4 mph - N/A   Overcast
4:55 PM 79.0 °F - 66.9 °F 66% 29.91 in 10.0 mi East 5.8 mph - N/A   Overcast
5:55 PM 77.2 °F - 66.9 °F 71% 29.92 in 10.0 mi ENE 6.9 mph - N/A   Overcast
6:55 PM 76.6 °F - 67.1 °F 72% 29.92 in 10.0 mi East 5.8 mph - N/A   Overcast
7:55 PM 75.9 °F - 66.9 °F 74% 29.93 in 10.0 mi East 6.9 mph - N/A   Mostly Cloudy
8:55 PM 74.8 °F - 67.1 °F 77% 29.95 in 10.0 mi NE 3.5 mph - N/A   Clear
9:55 PM 73.2 °F - 66.7 °F 80% 29.96 in 10.0 mi Calm Calm - N/A   Partly Cloudy
10:55 PM 72.3 °F - 67.1 °F 84% 29.97 in 10.0 mi Calm Calm - N/A   Mostly Cloudy
11:55 PM 72.0 °F - 66.9 °F 84% 29.96 in 10.0 mi Calm Calm - N/A   Mostly Cloudy